EDW50C LSZH-VTSP

Flight info

Callsign EDW50C
Flight time N/A
Altitude 37000
Route DEGES Z2 TUNUM Z204 GEDSO DCT BERTA DCT MAGAM DCT TUVAR DCT ETIDA DCT WRN DCT UDROS UM859 KARDE UL851 TBN UM11 REBLO M11 MATAL/N0485F390 M11 ERLEV L850 BAKUV N701 LARGI B701 TUGTA A909 LEMOD N644 DI A466 DPN L759 AGG/N0490F410 L759 SATVA SATVA1C
Aircraft A359/H-SABDE2E3GHIJ2J3J4J5M1P2RWXYZ/LB1D1

Departure

Time N/A
Airport Zürich Airport (LSZH)

Arrival

Time 2026-05-03 22:20
Airport Phuket International Airport (VTSP)
Time Latitude Longitude Altitude Speed Heading
2026-05-03 21:51 9.94892 96.59855 40832 ft 488 kts 137°
2026-05-03 21:51 9.92406 96.62191 40832 ft 488 kts 137°
2026-05-03 21:52 9.87442 96.66824 40832 ft 488 kts 137°
2026-05-03 21:52 9.82448 96.71494 40832 ft 488 kts 137°
2026-05-03 21:53 9.77464 96.76169 40832 ft 488 kts 137°
2026-05-03 21:53 9.72479 96.80847 40832 ft 488 kts 137°
2026-05-03 21:54 9.67489 96.85529 40832 ft 488 kts 137°
2026-05-03 21:54 9.62505 96.90203 40783 ft 486 kts 137°
2026-05-03 21:55 9.60038 96.92515 40278 ft 482 kts 137°
2026-05-03 21:55 9.57576 96.94823 39576 ft 483 kts 137°
2026-05-03 21:55 9.55103 96.97140 38850 ft 484 kts 137°
2026-05-03 21:55 9.52627 96.99460 38154 ft 484 kts 137°
2026-05-03 21:56 9.50149 97.01781 37420 ft 485 kts 137°
2026-05-03 21:56 9.47675 97.04099 36705 ft 485 kts 137°
2026-05-03 21:56 9.45194 97.06424 35958 ft 485 kts 137°
2026-05-03 21:56 9.42714 97.08746 35170 ft 487 kts 137°
2026-05-03 21:57 9.40218 97.11083 34272 ft 490 kts 137°
2026-05-03 21:57 9.37704 97.13434 33293 ft 495 kts 137°
2026-05-03 21:57 9.35194 97.15781 32337 ft 499 kts 137°
2026-05-03 21:57 9.32608 97.18198 31440 ft 501 kts 137°
2026-05-03 21:58 9.30043 97.20595 30517 ft 502 kts 137°
2026-05-03 21:58 9.27511 97.22961 29565 ft 503 kts 137°
2026-05-03 21:58 9.24902 97.25399 28711 ft 502 kts 137°
2026-05-03 21:58 9.22346 97.27787 27946 ft 499 kts 137°
2026-05-03 21:59 9.19810 97.30157 27202 ft 494 kts 137°
2026-05-03 21:59 9.17324 97.32479 26484 ft 490 kts 137°
2026-05-03 21:59 9.14799 97.34837 25775 ft 486 kts 137°
2026-05-03 21:59 9.12358 97.37116 25085 ft 481 kts 137°
2026-05-03 22:00 9.09910 97.39401 24411 ft 475 kts 137°
2026-05-03 22:00 9.07494 97.41654 23724 ft 470 kts 136°
2026-05-03 22:00 9.05099 97.43889 23007 ft 465 kts 136°
2026-05-03 22:00 9.02734 97.46094 22312 ft 461 kts 136°
2026-05-03 22:01 9.00390 97.48281 21638 ft 455 kts 136°
2026-05-03 22:01 8.98081 97.50437 20970 ft 449 kts 136°
2026-05-03 22:01 8.95794 97.52571 20283 ft 444 kts 136°
2026-05-03 22:01 8.93537 97.54676 19588 ft 439 kts 136°
2026-05-03 22:02 8.91300 97.56763 18898 ft 435 kts 136°
2026-05-03 22:02 8.89092 97.58818 18233 ft 429 kts 136°
2026-05-03 22:02 8.86906 97.60852 17551 ft 424 kts 136°
2026-05-03 22:02 8.84752 97.62860 16849 ft 419 kts 136°
2026-05-03 22:03 8.82615 97.64848 16135 ft 415 kts 136°
2026-05-03 22:03 8.80499 97.66812 15377 ft 411 kts 137°
2026-05-03 22:03 8.78402 97.68755 14665 ft 407 kts 137°
2026-05-03 22:03 8.76327 97.70676 13972 ft 402 kts 137°
2026-05-03 22:04 8.74274 97.72576 13252 ft 398 kts 137°
2026-05-03 22:04 8.72242 97.74458 12528 ft 394 kts 137°
2026-05-03 22:04 8.70230 97.76323 11877 ft 389 kts 137°
2026-05-03 22:04 8.68248 97.78162 11149 ft 384 kts 137°
2026-05-03 22:05 8.66289 97.79974 10586 ft 377 kts 136°
2026-05-03 22:05 8.64394 97.81728 10278 ft 363 kts 136°
2026-05-03 22:05 8.62576 97.83410 10065 ft 346 kts 136°
2026-05-03 22:05 8.60869 97.84993 10013 ft 327 kts 136°
2026-05-03 22:06 8.59246 97.86497 10002 ft 306 kts 136°
2026-05-03 22:06 8.57719 97.87913 10023 ft 293 kts 136°
2026-05-03 22:06 8.56201 97.89320 10017 ft 292 kts 136°
2026-05-03 22:06 8.54717 97.90695 10009 ft 293 kts 136°
2026-05-03 22:07 8.53216 97.92085 10012 ft 293 kts 136°
2026-05-03 22:07 8.51712 97.93479 10008 ft 293 kts 136°
2026-05-03 22:07 8.50210 97.94868 9968 ft 291 kts 136°
2026-05-03 22:07 8.48654 97.96147 9577 ft 289 kts 146°
2026-05-03 22:08 8.46774 97.96876 9051 ft 293 kts 166°
2026-05-03 22:08 8.44760 97.97250 8546 ft 294 kts 169°
2026-05-03 22:08 8.42742 97.97586 8092 ft 294 kts 169°
2026-05-03 22:08 8.40732 97.97925 7666 ft 291 kts 168°
2026-05-03 22:09 8.38752 97.98264 7371 ft 284 kts 168°
2026-05-03 22:09 8.36837 97.98596 7192 ft 273 kts 168°
2026-05-03 22:09 8.34997 97.98918 7036 ft 264 kts 168°
2026-05-03 22:10 8.31378 97.99555 6997 ft 265 kts 168°
2026-05-03 22:10 8.29577 97.99855 6719 ft 262 kts 171°
2026-05-03 22:10 8.27764 98.00040 6287 ft 263 kts 173°
2026-05-03 22:10 8.25945 98.00204 5889 ft 262 kts 173°
2026-05-03 22:11 8.24136 98.00372 5509 ft 261 kts 172°
2026-05-03 22:11 8.22335 98.00549 5145 ft 259 kts 172°
2026-05-03 22:11 8.20553 98.00728 4832 ft 255 kts 172°
2026-05-03 22:11 8.18820 98.00906 4679 ft 245 kts 172°
2026-05-03 22:12 8.17163 98.01076 4552 ft 234 kts 172°
2026-05-03 22:12 8.15571 98.01223 4358 ft 227 kts 173°
2026-05-03 22:12 8.14011 98.01366 4102 ft 223 kts 173°
2026-05-03 22:12 8.12471 98.01511 3819 ft 222 kts 173°
2026-05-03 22:13 8.10943 98.01678 3525 ft 220 kts 169°
2026-05-03 22:13 8.09612 98.02339 3165 ft 214 kts 130°
2026-05-03 22:13 8.08999 98.03657 3037 ft 206 kts 100°
2026-05-03 22:13 8.08883 98.05104 3026 ft 208 kts 87°
2026-05-03 22:14 8.08993 98.06562 3008 ft 209 kts 84°
2026-05-03 22:14 8.09126 98.07995 3017 ft 197 kts 84°
2026-05-03 22:14 8.09249 98.09300 3027 ft 179 kts 84°
2026-05-03 22:14 8.09361 98.10537 3018 ft 177 kts 84°
2026-05-03 22:15 8.09472 98.11774 3012 ft 178 kts 84°
2026-05-03 22:15 8.09583 98.13000 3010 ft 177 kts 84°
2026-05-03 22:15 8.09697 98.14236 3007 ft 176 kts 84°
2026-05-03 22:15 8.09809 98.15470 2920 ft 176 kts 84°
2026-05-03 22:16 8.09922 98.16693 2680 ft 172 kts 84°
2026-05-03 22:16 8.10032 98.17863 2445 ft 164 kts 84°
2026-05-03 22:16 8.10138 98.18995 2226 ft 161 kts 84°
2026-05-03 22:16 8.10239 98.20086 2012 ft 150 kts 84°
2026-05-03 22:17 8.10333 98.21098 1824 ft 140 kts 85°
2026-05-03 22:17 8.10424 98.22055 1647 ft 136 kts 85°
2026-05-03 22:17 8.10512 98.23008 1462 ft 136 kts 85°
2026-05-03 22:17 8.10601 98.23960 1285 ft 137 kts 85°
2026-05-03 22:18 8.10690 98.24921 1095 ft 137 kts 85°
2026-05-03 22:18 8.10779 98.25876 919 ft 137 kts 85°
2026-05-03 22:18 8.10879 98.26831 719 ft 137 kts 84°
2026-05-03 22:18 8.10960 98.27788 483 ft 136 kts 86°
2026-05-03 22:19 8.11050 98.28735 323 ft 136 kts 83°
2026-05-03 22:19 8.11130 98.29684 173 ft 136 kts 86°
2026-05-03 22:19 8.11227 98.30631 49 ft 135 kts 84°
2026-05-03 22:19 8.11306 98.31510 44 ft 111 kts 84°
2026-05-03 22:20 8.11371 98.32180 68 ft 81 kts 83°
2026-05-03 22:20 8.11405 98.32561 92 ft 17 kts 87°
2026-05-03 22:20 8.11346 98.32639 90 ft 15 kts 167°
2026-05-03 22:20 8.11273 98.32584 90 ft 15 kts 262°
2026-05-03 22:21 8.11260 98.32465 87 ft 19 kts 265°
2026-05-03 22:21 8.11245 98.32317 83 ft 24 kts 264°
2026-05-03 22:21 8.11228 98.32134 71 ft 29 kts 264°
2026-05-03 22:21 8.11209 98.31938 60 ft 24 kts 266°
2026-05-03 22:22 8.11193 98.31753 53 ft 29 kts 264°
2026-05-03 22:22 8.11173 98.31532 45 ft 34 kts 264°
2026-05-03 22:22 8.11150 98.31324 39 ft 23 kts 262°
2026-05-03 22:22 8.11135 98.31155 37 ft 26 kts 265°
2026-05-03 22:23 8.11113 98.30970 36 ft 27 kts 251°
2026-05-03 22:23 8.11072 98.30778 35 ft 29 kts 266°
2026-05-03 22:23 8.11057 98.30605 34 ft 23 kts 264°
2026-05-03 22:23 8.11028 98.30496 33 ft 12 kts 217°
2026-05-03 22:24 8.10940 98.30467 33 ft 15 kts 194°
2026-05-03 22:24 8.10833 98.30439 33 ft 17 kts 194°
2026-05-03 22:24 8.10721 98.30407 33 ft 15 kts 195°
2026-05-03 22:24 8.10670 98.30415 33 ft 6 kts 125°
2026-05-03 22:25 8.10658 98.30459 33 ft 6 kts 105°
2026-05-03 22:25 8.10655 98.30472 33 ft 0 kts 105°
2026-05-03 22:25 8.10654 98.30474 33 ft 0 kts 105°